Location: Sungai Bunut
(2.6333°N, 113.7333°E)
Time: 06:53:33
(UTC+00:00)

S-56A Canister/Altair - Pass Details

Date: 12 December 2023
Orbit: 639 x 2488 km, 38.9° (Epoch: 04 March)

Event Time Altitude Azimuth Distance (km) Brightness Sun altitude
Rises 20:49:02 0° 219° (SW) 6,087 12.0 -21.6°
Reaches altitude 10° 20:53:26 10° 214° (SW) 4,953 11.5 -20.6°
Maximum altitude 21:06:34 53° 142° (SE) 2,238 10.2 -17.6°
Drops below altitude 10° 21:15:46 10° 68° (ENE) 3,558 11.6 -15.5°
Sets 21:18:23 0° 63° (ENE) 4,307 12.0 -14.9°
